Location: Sherrills_Ford_Terrell
(35.6000°N, 80.9830°W)
Time: 21:32:33
(UTC-05:00)

ISS - Visible Passes

Search period start: 04 March 2015 00:00
Search period end: 14 March 2015 01:00
Orbit: 394 x 406 km, 51.6° (Epoch: 04 March)

Date Brightness Start Highest point End Pass type
(mag) Time Alt. Az. Time Alt. Az. Time Alt. Az.
08 Mar -2.1 07:16:17 10° SSW 07:19:20 42° SE 07:22:25 10° ENE visible
09 Mar -0.8 06:22:59 10° S 06:25:18 19° SE 06:27:42 10° E visible
10 Mar -3.4 07:03:56 10° SW 07:07:08 71° NW 07:10:21 10° NE visible
11 Mar -2.6 06:11:52 35° S 06:12:44 47° SE 06:15:51 10° ENE visible
12 Mar -0.2 05:19:55 15° E 05:19:55 15° E 05:20:47 10° E visible
12 Mar -2.3 06:52:27 16° W 06:54:28 30° NW 06:57:23 10° NNE visible
13 Mar -2.8 06:00:13 52° NNE 06:00:13 52° NNE 06:02:52 10° NE visible
